| time (UTC) | temp F | wind direction | speed MPH | gust MPH | rain 1hr in | rain 24hr in | rain mn in | humidity % | barometer mb |
| 20260904174300 | 69 | 269 | 0.0 | 2.0 | 0.00 | 0.10 | 0.00 | 85 | 1011.1 |
| 20260904173802 | 69 | 269 | 0.0 | 1.0 | 0.00 | 0.10 | 0.00 | 85 | 1011.0 |
| 20260904173301 | 70 | 269 | 0.0 | 1.0 | 0.00 | 0.10 | 0.00 | 83 | 1010.9 |
| 20260904173039 | 70 | 269 | 0.0 | 1.0 | 0.00 | 0.10 | 0.00 | 86 | 1010.5 |
| 20260904172801 | 71 | 269 | 0.0 | 0.0 | 0.00 | 0.10 | 0.00 | 88 | 1010.9 |
| 20260904172301 | 71 | 270 | 0.0 | 0.0 | 0.00 | 0.10 | 0.00 | 86 | 1010.9 |
| 20260904171801 | 71 | 270 | 0.0 | 0.0 | 0.00 | 0.10 | 0.00 | 84 | 1011.0 |
| 20260904171632 | 71 | 270 | 0.0 | 0.0 | 0.00 | 0.10 | 0.00 | 83 | 1010.6 |
| 20260904171302 | 72 | 270 | 0.0 | 0.0 | 0.00 | 0.10 | 0.00 | 80 | 1011.0 |
| 20260904170801 | 73 | 270 | 0.0 | 1.0 | 0.00 | 0.10 | 0.00 | 78 | 1010.9 |
| 20260904170302 | 73 | 269 | 0.0 | 1.0 | 0.00 | 0.10 | 0.00 | 74 | 1011.0 |
| 20260904170042 | 73 | 270 | 0.0 | 1.0 | 0.00 | 0.10 | 0.00 | 74 | 1010.6 |
| 20260904165801 | 74 | 270 | 0.0 | 1.0 | 0.00 | 0.10 | 0.00 | 74 | 1011.0 |
| 20260904165305 | 74 | 269 | 0.0 | 0.0 | 0.00 | 0.10 | 0.00 | 74 | 1011.1 |
| 20260904164801 | 74 | 270 | 0.0 | 0.0 | 0.00 | 0.10 | 0.00 | 73 | 1010.9 |
| 20260904164624 | 74 | 269 | 0.0 | 0.0 | 0.00 | 0.10 | 0.00 | 74 | 1010.6 |
| 20260904164301 | 75 | 270 | 0.0 | 0.0 | 0.00 | 0.10 | 0.00 | 73 | 1011.0 |
| 20260904163800 | 76 | 270 | 0.0 | 5.0 | 0.00 | 0.10 | 0.00 | 73 | 1011.0 |
| 20260904163302 | 76 | 270 | 0.0 | 5.0 | 0.00 | 0.10 | 0.00 | 74 | 1011.0 |
| 20260904163021 | 75 | 270 | 1.0 | 5.0 | 0.00 | 0.10 | 0.00 | 76 | 1010.6 |
| 20260904162301 | 74 | 269 | 0.0 | 0.0 | 0.00 | 0.10 | 0.00 | 78 | 1011.0 |
| 20260904161803 | 72 | 270 | 0.0 | 0.0 | 0.00 | 0.10 | 0.00 | 80 | 1011.2 |
| 20260904161634 | 72 | 270 | 0.0 | 0.0 | 0.00 | 0.10 | 0.00 | 80 | 1010.8 |
| 20260904161301 | 71 | 270 | 0.0 | 0.0 | 0.00 | 0.10 | 0.00 | 88 | 1011.2 |
| 20260904160802 | 70 | 269 | 0.0 | 0.0 | 0.00 | 0.10 | 0.00 | 92 | 1011.2 |
| 20260904160302 | 69 | 270 | 0.0 | 0.0 | 0.00 | 0.10 | 0.00 | 92 | 1011.2 |
| 20260904160010 | 69 | 269 | 0.0 | 0.0 | 0.00 | 0.10 | 0.00 | 91 | 1011.0 |
| 20260904155802 | 70 | 270 | 0.0 | 0.0 | 0.00 | 0.10 | 0.00 | 91 | 1011.3 |
| 20260904154802 | 71 | 269 | 0.0 | 0.0 | 0.00 | 0.10 | 0.00 | 90 | 1011.3 |
| 20260904154607 | 70 | 270 | 0.0 | 0.0 | 0.00 | 0.10 | 0.00 | 89 | 1010.9 |
| 20260904154302 | 71 | 270 | 0.0 | 0.0 | 0.00 | 0.10 | 0.00 | 90 | 1011.3 |
| 20260904153802 | 72 | 270 | 0.0 | 0.0 | 0.00 | 0.10 | 0.00 | 89 | 1011.4 |
| 20260904153300 | 72 | 270 | 0.0 | 0.0 | 0.00 | 0.10 | 0.00 | 91 | 1011.4 |
| 20260904153003 | 71 | 270 | 0.0 | 0.0 | 0.00 | 0.10 | 0.00 | 89 | 1011.1 |
| 20260904152801 | 72 | 270 | 0.0 | 0.0 | 0.00 | 0.10 | 0.00 | 87 | 1011.4 |
| 20260904151803 | 70 | 270 | 0.0 | 0.0 | 0.00 | 0.10 | 0.00 | 92 | 1011.3 |
| 20260904151607 | 70 | 269 | 0.0 | 0.0 | 0.00 | 0.10 | 0.00 | 92 | 1011.0 |
| 20260904151303 | 69 | 270 | 0.0 | 0.0 | 0.00 | 0.10 | 0.00 | 92 | 1011.3 |
| 20260904150302 | 70 | 270 | 0.0 | 0.0 | 0.00 | 0.10 | 0.00 | 90 | 1011.6 |
| 20260904150013 | 70 | 270 | 0.0 | 0.0 | 0.00 | 0.10 | 0.00 | 91 | 1011.2 |
| 20260904145801 | 70 | 269 | 0.0 | 0.0 | 0.00 | 0.10 | 0.00 | 90 | 1011.5 |
| 20260904145305 | 71 | 269 | 0.0 | 0.0 | 0.00 | 0.10 | 0.00 | 89 | 1011.5 |
| 20260904144801 | 71 | 270 | 0.0 | 0.0 | 0.00 | 0.10 | 0.00 | 87 | 1011.5 |
| 20260904144608 | 71 | 270 | 0.0 | 0.0 | 0.00 | 0.10 | 0.00 | 89 | 1011.2 |
| 20260904144301 | 71 | 270 | 0.0 | 0.0 | 0.00 | 0.10 | 0.00 | 91 | 1011.5 |
| 20260904143802 | 71 | 270 | 0.0 | 0.0 | 0.00 | 0.10 | 0.00 | 90 | 1011.5 |
| 20260904143301 | 70 | 270 | 0.0 | 0.0 | 0.00 | 0.10 | 0.00 | 90 | 1011.5 |
| 20260904143008 | 70 | 269 | 0.0 | 0.0 | 0.00 | 0.10 | 0.00 | 91 | 1011.3 |
| 20260904142801 | 70 | 270 | 0.0 | 0.0 | 0.00 | 0.10 | 0.00 | 91 | 1011.6 |
| 20260904142300 | 69 | 270 | 0.0 | 0.0 | 0.00 | 0.10 | 0.00 | 92 | 1011.5 |
| 20260904141801 | 69 | 269 | 0.0 | 0.0 | 0.00 | 0.10 | 0.00 | 92 | 1011.6 |
| 20260904141603 | 68 | 270 | 0.0 | 0.0 | 0.00 | 0.10 | 0.00 | 92 | 1011.5 |
| 20260904141302 | 69 | 269 | 0.0 | 0.0 | 0.00 | 0.10 | 0.00 | 92 | 1011.7 |
| 20260904140802 | 68 | 269 | 0.0 | 0.0 | 0.00 | 0.10 | 0.00 | 92 | 1011.7 |
| 20260904140302 | 68 | 270 | 0.0 | 0.0 | 0.00 | 0.10 | 0.00 | 93 | 1011.6 |
| 20260904140004 | 68 | 269 | 0.0 | 0.0 | 0.00 | 0.10 | 0.00 | 92 | 1011.4 |
| 20260904135802 | 68 | 270 | 0.0 | 0.0 | 0.00 | 0.10 | 0.00 | 93 | 1011.6 |
| 20260904134800 | 67 | 269 | 0.0 | 0.0 | 0.00 | 0.10 | 0.00 | 93 | 1011.6 |
| 20260904134603 | 67 | 270 | 0.0 | 0.0 | 0.00 | 0.10 | 0.00 | 93 | 1011.3 |
| 20260904134300 | 67 | 269 | 0.0 | 0.0 | 0.00 | 0.10 | 0.00 | 92 | 1011.5 |
| 20260904133756 | 67 | 269 | 0.0 | 0.0 | 0.00 | 0.10 | 0.00 | 92 | 1011.5 |
| 20260904133004 | 66 | 270 | 0.0 | 0.0 | 0.00 | 0.10 | 0.00 | 92 | 1011.3 |
| 20260904132753 | 66 | 270 | 0.0 | 0.0 | 0.00 | 0.10 | 0.00 | 92 | 1011.5 |
| 20260904132251 | 66 | 269 | 0.0 | 0.0 | 0.00 | 0.10 | 0.00 | 92 | 1011.6 |
| 20260904131605 | 65 | 270 | 0.0 | 0.0 | 0.00 | 0.10 | 0.00 | 95 | 1011.3 |
| 20260904131251 | 65 | 269 | 0.0 | 0.0 | 0.00 | 0.10 | 0.00 | 95 | 1011.5 |
| 20260904130748 | 64 | 269 | 0.0 | 0.0 | 0.00 | 0.10 | 0.00 | 96 | 1011.5 |
| 20260904130004 | 63 | 269 | 0.0 | 0.0 | 0.00 | 0.10 | 0.00 | 98 | 1011.2 |
| 20260904125749 | 62 | 269 | 0.0 | 0.0 | 0.00 | 0.10 | 0.00 | 98 | 1011.4 |
| 20260904125250 | 62 | 269 | 0.0 | 0.0 | 0.00 | 0.10 | 0.00 | 98 | 1011.5 |
| 20260904124748 | 62 | 269 | 0.0 | 0.0 | 0.00 | 0.10 | 0.00 | 99 | 1011.6 |
| 20260904124610 | 61 | 269 | 0.0 | 0.0 | 0.00 | 0.10 | 0.00 | 99 | 1011.3 |
| 20260904124245 | 61 | 270 | 0.0 | 0.0 | 0.00 | 0.10 | 0.00 | 99 | 1011.5 |
| 20260904123745 | 60 | 269 | 0.0 | 0.0 | 0.00 | 0.10 | 0.00 | 99 | 1011.6 |
| 20260904123245 | 59 | 269 | 0.0 | 0.0 | 0.00 | 0.10 | 0.00 | 99 | 1011.4 |
| 20260904123157 | 58 | 269 | 0.0 | 0.0 | 0.00 | 0.10 | 0.00 | 99 | 1011.3 |
| 20260904122746 | 58 | 269 | 0.0 | 0.0 | 0.00 | 0.10 | 0.00 | 99 | 1011.5 |
| 20260904122246 | 58 | 269 | 0.0 | 0.0 | 0.00 | 0.10 | 0.00 | 98 | 1011.5 |
| 20260904121743 | 57 | 269 | 0.0 | 0.0 | 0.00 | 0.10 | 0.00 | 98 | 1011.6 |
| 20260904121554 | 57 | 269 | 0.0 | 0.0 | 0.00 | 0.10 | 0.00 | 98 | 1011.4 |
| 20260904121244 | 57 | 269 | 0.0 | 0.0 | 0.00 | 0.10 | 0.00 | 98 | 1011.6 |
| 20260904120237 | 56 | 269 | 0.0 | 0.0 | 0.00 | 0.10 | 0.00 | 98 | 1011.6 |
| 20260904120145 | 56 | 269 | 0.0 | 0.0 | 0.00 | 0.10 | 0.00 | 98 | 1011.4 |
| 20260904115738 | 56 | 269 | 0.0 | 0.0 | 0.00 | 0.10 | 0.00 | 98 | 1011.6 |
| 20260904114738 | 56 | 269 | 0.0 | 0.0 | 0.00 | 0.10 | 0.00 | 98 | 1011.6 |
| 20260904114547 | 56 | 269 | 0.0 | 0.0 | 0.00 | 0.10 | 0.00 | 98 | 1011.4 |
| 20260904114236 | 56 | 269 | 0.0 | 0.0 | 0.00 | 0.10 | 0.00 | 98 | 1011.5 |
| 20260904113737 | 56 | 269 | 0.0 | 0.0 | 0.00 | 0.10 | 0.00 | 98 | 1011.5 |
| 20260904113236 | 56 | 269 | 0.0 | 0.0 | 0.00 | 0.10 | 0.00 | 98 | 1011.5 |
| 20260904113143 | 56 | 269 | 0.0 | 0.0 | 0.00 | 0.10 | 0.00 | 98 | 1011.3 |
| 20260904112736 | 56 | 269 | 0.0 | 0.0 | 0.00 | 0.10 | 0.00 | 98 | 1011.6 |
| 20260904112230 | 56 | 269 | 0.0 | 0.0 | 0.00 | 0.10 | 0.00 | 98 | 1011.5 |
| 20260904111544 | 55 | 269 | 0.0 | 0.0 | 0.00 | 0.10 | 0.00 | 98 | 1011.3 |
| 20260904111232 | 56 | 269 | 0.0 | 0.0 | 0.00 | 0.10 | 0.00 | 98 | 1011.4 |
| 20260904110730 | 56 | 269 | 0.0 | 0.0 | 0.00 | 0.10 | 0.00 | 98 | 1011.4 |
| 20260904110231 | 56 | 269 | 0.0 | 0.0 | 0.00 | 0.10 | 0.00 | 98 | 1011.3 |
| 20260904110133 | 55 | 269 | 0.0 | 0.0 | 0.00 | 0.12 | 0.10 | 98 | 1011.1 |
| 20260904105731 | 56 | 269 | 0.0 | 0.0 | 0.00 | 0.10 | 0.00 | 98 | 1011.3 |
| 20260904105229 | 56 | 269 | 0.0 | 0.0 | 0.00 | 0.10 | 0.00 | 98 | 1011.3 |
| 20260904104729 | 56 | 269 | 0.0 | 0.0 | 0.00 | 0.10 | 0.00 | 98 | 1011.4 |
| 20260904104525 | 55 | 269 | 0.0 | 0.0 | 0.00 | 0.12 | 0.10 | 98 | 1011.2 |
| 20260904104230 | 56 | 269 | 0.0 | 0.0 | 0.00 | 0.11 | 0.00 | 98 | 1011.4 |
| 20260904103730 | 56 | 269 | 0.0 | 0.0 | 0.00 | 0.12 | 0.00 | 98 | 1011.4 |
| 20260904103229 | 56 | 269 | 0.0 | 0.0 | 0.00 | 0.12 | 0.00 | 98 | 1011.3 |
| 20260904103008 | 55 | 269 | 0.0 | 0.0 | 0.00 | 0.12 | 0.10 | 98 | 1011.1 |
| 20260904102231 | 56 | 269 | 0.0 | 0.0 | 0.00 | 0.12 | 0.00 | 98 | 1011.3 |
| 20260904101730 | 56 | 269 | 0.0 | 0.0 | 0.00 | 0.12 | 0.00 | 98 | 1011.3 |
| 20260904101514 | 55 | 269 | 0.0 | 0.0 | 0.00 | 0.12 | 0.10 | 98 | 1011.1 |
| 20260904101230 | 56 | 269 | 0.0 | 0.0 | 0.00 | 0.12 | 0.00 | 98 | 1011.3 |
| 20260904100729 | 56 | 269 | 0.0 | 0.0 | 0.00 | 0.12 | 0.00 | 98 | 1011.2 |
| 20260904100230 | 56 | 269 | 0.0 | 0.0 | 0.00 | 0.13 | 0.00 | 98 | 1011.1 |
| 20260904095730 | 56 | 269 | 0.0 | 0.0 | 0.00 | 0.13 | 0.00 | 98 | 1011.2 |
| 20260904095229 | 56 | 269 | 0.0 | 0.0 | 0.00 | 0.13 | 0.00 | 98 | 1011.2 |
| 20260904094728 | 56 | 269 | 0.0 | 0.0 | 0.00 | 0.13 | 0.00 | 98 | 1011.2 |
| 20260904094504 | 56 | 269 | 0.0 | 0.0 | 0.00 | 0.14 | 0.10 | 98 | 1011.0 |
| 20260904094229 | 56 | 269 | 0.0 | 0.0 | 0.00 | 0.13 | 0.00 | 98 | 1011.1 |
| 20260904093729 | 56 | 269 | 0.0 | 0.0 | 0.00 | 0.13 | 0.00 | 98 | 1011.1 |
| 20260904093229 | 56 | 269 | 0.0 | 0.0 | 0.00 | 0.13 | 0.00 | 98 | 1011.2 |
| 20260904093100 | 56 | 269 | 0.0 | 0.0 | 0.00 | 0.14 | 0.10 | 98 | 1011.2 |
| 20260904092730 | 56 | 269 | 0.0 | 0.0 | 0.00 | 0.13 | 0.00 | 98 | 1011.2 |
| 20260904092230 | 56 | 269 | 0.0 | 0.0 | 0.00 | 0.13 | 0.00 | 98 | 1011.2 |
| 20260904091730 | 56 | 269 | 0.0 | 0.0 | 0.00 | 0.13 | 0.00 | 98 | 1011.2 |
| 20260904091656 | 56 | 269 | 0.0 | 0.0 | 0.00 | 0.14 | 0.10 | 98 | 1011.0 |
| 20260904091230 | 56 | 269 | 0.0 | 0.0 | 0.00 | 0.13 | 0.00 | 98 | 1011.1 |
| 20260904090730 | 56 | 269 | 0.0 | 0.0 | 0.00 | 0.14 | 0.00 | 98 | 1011.2 |
| 20260904090056 | 56 | 269 | 0.0 | 0.0 | 0.00 | 0.24 | 0.10 | 98 | 1011.0 |
| 20260904085730 | 56 | 269 | 0.0 | 0.0 | 0.00 | 0.14 | 0.00 | 98 | 1011.0 |
| 20260904085230 | 56 | 269 | 0.0 | 0.0 | 0.00 | 0.14 | 0.00 | 98 | 1011.1 |
| 20260904084730 | 56 | 269 | 0.0 | 0.0 | 0.00 | 0.15 | 0.00 | 98 | 1011.1 |
| 20260904084653 | 55 | 269 | 0.0 | 0.0 | 0.00 | 0.24 | 0.10 | 97 | 1010.9 |
| 20260904084229 | 56 | 269 | 0.0 | 0.0 | 0.00 | 0.15 | 0.00 | 97 | 1011.1 |
| 20260904083729 | 56 | 269 | 0.0 | 0.0 | 0.00 | 0.16 | 0.00 | 97 | 1011.1 |
| 20260904083230 | 56 | 269 | 0.0 | 0.0 | 0.00 | 0.18 | 0.00 | 97 | 1011.0 |
| 20260904083050 | 56 | 269 | 0.0 | 0.0 | 0.00 | 0.24 | 0.10 | 97 | 1010.7 |
| 20260904082729 | 56 | 269 | 0.0 | 0.0 | 0.00 | 0.20 | 0.00 | 97 | 1010.9 |
| 20260904081729 | 56 | 269 | 0.0 | 0.0 | 0.00 | 0.23 | 0.00 | 97 | 1011.0 |
| 20260904081649 | 56 | 269 | 0.0 | 0.0 | 0.00 | 0.24 | 0.10 | 97 | 1010.8 |
| 20260904081229 | 57 | 269 | 0.0 | 0.0 | 0.00 | 0.24 | 0.00 | 97 | 1011.0 |
| 20260904080728 | 57 | 269 | 0.0 | 0.0 | 0.00 | 0.24 | 0.00 | 97 | 1011.1 |
| 20260904080229 | 57 | 269 | 0.0 | 0.0 | 0.00 | 0.25 | 0.00 | 97 | 1011.2 |
| 20260904080058 | 56 | 269 | 0.0 | 0.0 | 0.00 | 0.28 | 0.10 | 97 | 1010.9 |
| 20260904075728 | 57 | 269 | 0.0 | 0.0 | 0.00 | 0.25 | 0.00 | 97 | 1011.2 |
| 20260904075229 | 57 | 269 | 0.0 | 0.0 | 0.00 | 0.25 | 0.00 | 97 | 1011.2 |
| 20260904074728 | 57 | 269 | 0.0 | 0.0 | 0.00 | 0.25 | 0.00 | 97 | 1011.2 |
| 20260904074645 | 57 | 269 | 0.0 | 0.0 | 0.00 | 0.28 | 0.10 | 97 | 1011.0 |
| 20260904074228 | 57 | 269 | 0.0 | 0.0 | 0.00 | 0.25 | 0.00 | 97 | 1011.2 |
| 20260904073728 | 58 | 269 | 0.0 | 0.0 | 0.00 | 0.26 | 0.00 | 97 | 1011.2 |
| 20260904073057 | 57 | 269 | 0.0 | 0.0 | 0.00 | 0.28 | 0.10 | 97 | 1011.0 |
| 20260904072728 | 58 | 269 | 0.0 | 0.0 | 0.00 | 0.27 | 0.00 | 97 | 1011.3 |
| 20260904072228 | 58 | 269 | 0.0 | 0.0 | 0.00 | 0.27 | 0.00 | 97 | 1011.4 |
| 20260904071730 | 58 | 269 | 0.0 | 0.0 | 0.00 | 0.27 | 0.00 | 97 | 1011.5 |
| 20260904071643 | 58 | 269 | 0.0 | 0.0 | 0.00 | 0.28 | 0.10 | 97 | 1011.3 |
| 20260904071229 | 58 | 269 | 0.0 | 0.0 | 0.00 | 0.27 | 0.00 | 97 | 1011.4 |
| 20260904070730 | 58 | 269 | 0.0 | 0.0 | 0.00 | 0.28 | 0.00 | 97 | 1011.4 |
| 20260904070230 | 58 | 269 | 0.0 | 0.0 | 0.00 | 0.29 | 0.00 | 97 | 1011.5 |
| 20260904070037 | 58 | 269 | 0.0 | 0.0 | 0.00 | 0.33 | 0.10 | 97 | 1011.3 |
| 20260904065730 | 58 | 269 | 0.0 | 0.0 | 0.00 | 0.30 | 0.00 | 97 | 1011.5 |
| 20260904065229 | 58 | 269 | 0.0 | 0.0 | 0.00 | 0.32 | 0.00 | 97 | 1011.5 |
| 20260904064730 | 59 | 269 | 0.0 | 0.0 | 0.00 | 0.32 | 0.00 | 97 | 1011.5 |
| 20260904064645 | 58 | 269 | 0.0 | 0.0 | 0.00 | 0.33 | 0.10 | 97 | 1011.2 |
| 20260904064230 | 59 | 269 | 0.0 | 0.0 | 0.00 | 0.33 | 0.00 | 97 | 1011.5 |
| 20260904063727 | 59 | 269 | 0.0 | 0.0 | 0.00 | 0.33 | 0.00 | 97 | 1011.6 |
| 20260904063025 | 59 | 269 | 0.0 | 0.0 | 0.00 | 0.33 | 0.10 | 97 | 1011.3 |
| 20260904062721 | 59 | 269 | 0.0 | 0.0 | 0.00 | 0.33 | 0.00 | 98 | 1011.8 |
| 20260904062219 | 59 | 269 | 0.0 | 0.0 | 0.00 | 0.33 | 0.00 | 97 | 1011.8 |
| 20260904061716 | 60 | 269 | 0.0 | 0.0 | 0.00 | 0.33 | 0.00 | 97 | 1011.9 |
| 20260904061605 | 59 | 269 | 0.0 | 0.0 | 0.00 | 0.33 | 0.10 | 97 | 1011.8 |
| 20260904061217 | 60 | 269 | 0.0 | 0.0 | 0.00 | 0.33 | 0.00 | 97 | 1012.1 |
| 20260904060215 | 60 | 269 | 0.0 | 0.0 | 0.00 | 0.34 | 0.00 | 98 | 1012.3 |
| 20260904060001 | 59 | 269 | 0.0 | 0.0 | 0.00 | 0.37 | 0.10 | 98 | 1012.1 |
| 20260904055716 | 60 | 269 | 0.0 | 0.0 | 0.00 | 0.35 | 0.00 | 98 | 1012.2 |
| 20260904055215 | 60 | 269 | 0.0 | 0.0 | 0.00 | 0.35 | 0.00 | 98 | 1012.2 |
| 20260904054712 | 60 | 269 | 0.0 | 0.0 | 0.00 | 0.35 | 0.00 | 98 | 1012.2 |
| 20260904054603 | 59 | 269 | 0.0 | 0.0 | 0.00 | 0.37 | 0.10 | 98 | 1012.1 |
| 20260904053709 | 60 | 269 | 0.0 | 0.0 | 0.00 | 0.35 | 0.00 | 98 | 1012.6 |
| 20260904053003 | 59 | 269 | 0.0 | 0.0 | 0.00 | 0.37 | 0.10 | 98 | 1012.3 |
| 20260904052704 | 60 | 269 | 0.0 | 0.0 | 0.00 | 0.36 | 0.00 | 98 | 1012.8 |
| 20260904052203 | 60 | 269 | 0.0 | 0.0 | 0.00 | 0.36 | 0.00 | 98 | 1012.7 |
| 20260904051703 | 60 | 269 | 0.0 | 0.0 | 0.00 | 0.37 | 0.00 | 98 | 1012.7 |
| 20260904051557 | 59 | 269 | 0.0 | 0.0 | 0.00 | 0.37 | 0.10 | 98 | 1012.5 |
| 20260904050201 | 59 | 269 | 0.0 | 0.0 | 0.00 | 0.38 | 0.00 | 97 | 1012.9 |
| 20260904050148 | 59 | 269 | 0.0 | 0.0 | 0.00 | 0.39 | 0.10 | 97 | 1012.7 |
| 20260904045702 | 59 | 269 | 0.0 | 0.0 | 0.00 | 0.38 | 0.00 | 97 | 1012.9 |
| 20260904045203 | 59 | 269 | 0.0 | 0.0 | 0.00 | 0.38 | 0.00 | 97 | 1012.8 |
| 20260904044701 | 59 | 269 | 0.0 | 0.0 | 0.00 | 0.38 | 0.00 | 97 | 1012.7 |
| 20260904044538 | 59 | 269 | 0.0 | 0.0 | 0.00 | 0.39 | 0.10 | 97 | 1012.6 |
| 20260904044202 | 59 | 269 | 0.0 | 0.0 | 0.00 | 0.39 | 0.00 | 97 | 1012.8 |
| 20260904043702 | 59 | 269 | 0.0 | 0.0 | 0.00 | 0.39 | 0.00 | 97 | 1012.9 |
| 20260904043203 | 59 | 269 | 0.0 | 0.0 | 0.00 | 0.39 | 0.00 | 97 | 1012.9 |
| 20260904043130 | 59 | 269 | 0.0 | 0.0 | 0.00 | 0.39 | 0.10 | 97 | 1012.7 |
| 20260904042700 | 59 | 269 | 0.0 | 0.0 | 0.00 | 0.39 | 0.00 | 97 | 1012.9 |
| 20260904042202 | 60 | 269 | 0.0 | 0.0 | 0.00 | 0.39 | 0.00 | 97 | 1012.8 |
| 20260904041701 | 60 | 269 | 0.0 | 0.0 | 0.00 | 0.39 | 0.00 | 97 | 1012.8 |
| 20260904041532 | 59 | 269 | 0.0 | 0.0 | 0.00 | 0.39 | 0.10 | 97 | 1012.6 |
| 20260904041201 | 60 | 269 | 0.0 | 0.0 | 0.00 | 0.39 | 0.00 | 97 | 1012.8 |
| 20260904040701 | 60 | 269 | 0.0 | 0.0 | 0.00 | 0.39 | 0.00 | 97 | 1012.7 |
| 20260904040204 | 60 | 269 | 0.0 | 0.0 | 0.00 | 0.39 | 0.00 | 97 | 1012.7 |
| 20260904035707 | 60 | 269 | 0.0 | 0.0 | 0.00 | 0.39 | 0.39 | 97 | 1012.8 |
| 20260904035203 | 60 | 269 | 0.0 | 0.0 | 0.00 | 0.39 | 0.39 | 97 | 1012.9 |
| 20260904034706 | 60 | 269 | 0.0 | 0.0 | 0.00 | 0.39 | 0.39 | 97 | 1013.1 |
| 20260904034545 | 60 | 269 | 0.0 | 0.0 | 0.00 | 0.39 | 0.10 | 97 | 1012.8 |
| 20260904034211 | 60 | 269 | 0.0 | 0.0 | 0.00 | 0.39 | 0.39 | 97 | 1013.0 |
| 20260904033704 | 60 | 269 | 0.0 | 0.0 | 0.00 | 0.39 | 0.39 | 97 | 1013.0 |
| 20260904033206 | 60 | 269 | 0.0 | 0.0 | 0.00 | 0.39 | 0.39 | 97 | 1013.1 |
| 20260904033131 | 60 | 269 | 0.0 | 0.0 | 0.00 | 0.39 | 0.10 | 97 | 1012.9 |
| 20260904032705 | 60 | 269 | 0.0 | 0.0 | 0.00 | 0.39 | 0.39 | 97 | 1013.2 |
| 20260904032206 | 60 | 269 | 0.0 | 0.0 | 0.00 | 0.39 | 0.39 | 97 | 1013.3 |
| 20260904031701 | 60 | 269 | 0.0 | 0.0 | 0.00 | 0.39 | 0.39 | 97 | 1013.5 |
| 20260904031533 | 60 | 269 | 0.0 | 0.0 | 0.00 | 0.39 | 0.10 | 97 | 1013.3 |
| 20260904031207 | 60 | 269 | 0.0 | 0.0 | 0.00 | 0.39 | 0.39 | 97 | 1013.5 |
| 20260904030704 | 60 | 269 | 0.0 | 0.0 | 0.00 | 0.39 | 0.39 | 97 | 1013.4 |
| 20260904030201 | 60 | 269 | 0.0 | 0.0 | 0.00 | 0.39 | 0.39 | 97 | 1013.4 |
| 20260904025652 | 60 | 269 | 0.0 | 0.0 | 0.00 | 0.39 | 0.39 | 97 | 1013.3 |
| 20260904024649 | 60 | 269 | 0.0 | 0.0 | 0.00 | 0.39 | 0.39 | 97 | 1013.7 |
| 20260904024529 | 60 | 269 | 0.0 | 0.0 | 0.00 | 0.39 | 0.10 | 97 | 1013.4 |
| 20260904023644 | 61 | 269 | 0.0 | 0.0 | 0.00 | 0.39 | 0.39 | 97 | 1013.4 |
| 20260904023139 | 61 | 269 | 0.0 | 0.0 | 0.00 | 0.39 | 0.39 | 97 | 1013.5 |
| 20260904023134 | 61 | 269 | 0.0 | 0.0 | 0.00 | 0.39 | 0.10 | 97 | 1013.3 |
| 20260904022632 | 61 | 269 | 0.0 | 0.0 | 0.00 | 0.39 | 0.39 | 97 | 1013.7 |
| 20260904022133 | 61 | 269 | 0.0 | 0.0 | 0.00 | 0.39 | 0.39 | 97 | 1013.5 |
| 20260904021630 | 61 | 269 | 0.0 | 0.0 | 0.00 | 0.39 | 0.39 | 97 | 1013.7 |
| 20260904021526 | 61 | 269 | 0.0 | 0.0 | 0.00 | 0.39 | 0.10 | 97 | 1013.5 |
| 20260904021130 | 62 | 269 | 0.0 | 0.0 | 0.00 | 0.39 | 0.39 | 97 | 1013.8 |
| 20260904020630 | 62 | 269 | 0.0 | 0.0 | 0.00 | 0.39 | 0.39 | 97 | 1013.8 |
| 20260904020131 | 62 | 269 | 0.0 | 0.0 | 0.00 | 0.39 | 0.39 | 97 | 1013.9 |
| 20260904020106 | 61 | 269 | 0.0 | 0.0 | 0.00 | 0.39 | 0.10 | 97 | 1013.6 |
| 20260904014658 | 61 | 269 | 0.0 | 0.0 | 0.00 | 0.39 | 0.10 | 97 | 1014.0 |
| 20260904014625 | 62 | 269 | 0.0 | 0.0 | 0.00 | 0.39 | 0.39 | 97 | 1014.2 |
| 20260904014124 | 62 | 269 | 0.0 | 0.0 | 0.00 | 0.39 | 0.39 | 97 | 1014.2 |
| 20260904013122 | 62 | 269 | 0.0 | 0.0 | 0.00 | 0.39 | 0.39 | 97 | 1013.9 |
| 20260904013109 | 61 | 269 | 0.0 | 0.0 | 0.00 | 0.39 | 0.10 | 97 | 1013.6 |
| 20260904012618 | 62 | 269 | 0.0 | 0.0 | 0.00 | 0.39 | 0.39 | 97 | 1013.9 |
| 20260904012118 | 62 | 269 | 0.0 | 0.0 | 0.00 | 0.39 | 0.39 | 97 | 1014.0 |
| 20260904011642 | 61 | 269 | 0.0 | 0.0 | 0.00 | 0.39 | 0.10 | 97 | 1013.8 |
| 20260904011618 | 62 | 269 | 0.0 | 0.0 | 0.00 | 0.39 | 0.39 | 97 | 1014.1 |
| 20260904011117 | 62 | 269 | 0.0 | 0.0 | 0.00 | 0.39 | 0.39 | 97 | 1013.9 |
| 20260904010617 | 62 | 269 | 0.0 | 0.0 | 0.00 | 0.39 | 0.39 | 97 | 1014.0 |
| 20260904010117 | 62 | 269 | 0.0 | 0.0 | 0.00 | 0.39 | 0.39 | 97 | 1014.0 |
| 20260904010039 | 61 | 269 | 0.0 | 0.0 | 0.00 | 0.39 | 0.10 | 97 | 1013.6 |
| 20260904005615 | 62 | 269 | 0.0 | 0.0 | 0.00 | 0.39 | 0.39 | 97 | 1014.0 |
| 20260904005113 | 62 | 269 | 0.0 | 0.0 | 0.00 | 0.39 | 0.39 | 97 | 1013.8 |
| 20260904004639 | 61 | 269 | 0.0 | 0.0 | 0.00 | 0.39 | 0.10 | 97 | 1013.5 |
| 20260904004610 | 62 | 269 | 0.0 | 0.0 | 0.00 | 0.39 | 0.39 | 97 | 1013.8 |
| 20260904004109 | 62 | 269 | 0.0 | 0.0 | 0.00 | 0.39 | 0.39 | 97 | 1013.8 |
| 20260904003607 | 62 | 269 | 0.0 | 0.0 | 0.00 | 0.39 | 0.39 | 97 | 1014.0 |
| 20260904003107 | 62 | 269 | 0.0 | 0.0 | 0.00 | 0.39 | 0.39 | 97 | 1013.9 |
| 20260904003032 | 61 | 269 | 0.0 | 0.0 | 0.00 | 0.39 | 0.10 | 97 | 1013.6 |
| 20260904002604 | 62 | 269 | 0.0 | 0.0 | 0.00 | 0.39 | 0.39 | 97 | 1014.0 |
| 20260904002104 | 62 | 269 | 0.0 | 0.0 | 0.00 | 0.39 | 0.39 | 97 | 1013.9 |
| 20260904001620 | 61 | 269 | 0.0 | 0.0 | 0.00 | 0.39 | 0.10 | 97 | 1013.7 |
| 20260904001605 | 62 | 269 | 0.0 | 0.0 | 0.00 | 0.39 | 0.39 | 97 | 1014.0 |
| 20260904001104 | 62 | 269 | 0.0 | 0.0 | 0.01 | 0.39 | 0.39 | 97 | 1014.0 |
| 20260904000602 | 62 | 269 | 0.0 | 0.0 | 0.01 | 0.39 | 0.39 | 96 | 1014.0 |
| 20260904000103 | 62 | 269 | 0.0 | 0.0 | 0.02 | 0.39 | 0.39 | 96 | 1014.1 |
| 20260904000010 | 61 | 269 | 0.0 | 0.0 | 0.02 | 0.39 | 0.10 | 96 | 1013.7 |
| 20260903235101 | 62 | 269 | 0.0 | 0.0 | 0.09 | 0.39 | 0.39 | 96 | 1013.5 |
| 20260903234617 | 61 | 269 | 0.0 | 0.0 | 0.10 | 0.39 | 0.10 | 96 | 1013.2 |
| 20260903234601 | 62 | 269 | 0.0 | 0.0 | 0.10 | 0.39 | 0.39 | 96 | 1013.4 |
| 20260903234102 | 62 | 269 | 0.0 | 0.0 | 0.10 | 0.39 | 0.39 | 96 | 1013.3 |
| 20260903233601 | 62 | 269 | 0.0 | 0.0 | 0.10 | 0.39 | 0.39 | 96 | 1013.3 |
| 20260903233155 | 61 | 269 | 0.0 | 0.0 | 0.10 | 0.39 | 0.10 | 96 | 1013.0 |
| 20260903233101 | 62 | 269 | 0.0 | 0.0 | 0.10 | 0.39 | 0.39 | 96 | 1013.3 |
| 20260903232602 | 62 | 269 | 0.0 | 0.0 | 0.10 | 0.39 | 0.39 | 96 | 1013.3 |
| 20260903232102 | 62 | 269 | 0.0 | 0.0 | 0.10 | 0.39 | 0.39 | 96 | 1013.4 |
| 20260903231604 | 62 | 269 | 0.0 | 0.0 | 0.10 | 0.39 | 0.10 | 96 | 1013.3 |
| 20260903231602 | 62 | 269 | 0.0 | 0.0 | 0.10 | 0.39 | 0.39 | 96 | 1013.5 |
| 20260903231102 | 62 | 269 | 0.0 | 0.0 | 0.09 | 0.38 | 0.38 | 96 | 1013.9 |
| 20260903230603 | 62 | 269 | 0.0 | 0.0 | 0.09 | 0.38 | 0.37 | 95 | 1014.3 |
| 20260903225601 | 62 | 269 | 0.0 | 0.0 | 0.04 | 0.33 | 0.32 | 95 | 1014.6 |
| 20260903224602 | 63 | 269 | 0.0 | 0.0 | 0.00 | 0.29 | 0.29 | 95 | 1014.8 |
| 20260903224547 | 62 | 269 | 0.0 | 0.0 | 0.00 | 0.28 | 0.00 | 95 | 1014.5 |
| 20260903224101 | 63 | 269 | 0.0 | 0.0 | 0.00 | 0.29 | 0.29 | 95 | 1014.7 |
| 20260903223601 | 63 | 269 | 0.0 | 0.0 | 0.00 | 0.29 | 0.29 | 95 | 1014.4 |
| 20260903223143 | 63 | 269 | 0.0 | 0.0 | 0.00 | 0.28 | 0.00 | 94 | 1014.1 |
| 20260903223103 | 63 | 269 | 0.0 | 0.0 | 0.00 | 0.29 | 0.29 | 94 | 1014.4 |
| 20260903222102 | 63 | 269 | 0.0 | 0.0 | 0.00 | 0.29 | 0.29 | 94 | 1014.3 |
| 20260903221601 | 64 | 269 | 0.0 | 0.0 | 0.00 | 0.29 | 0.29 | 94 | 1014.4 |
| 20260903221538 | 63 | 269 | 0.0 | 0.0 | 0.00 | 0.28 | 0.00 | 94 | 1014.1 |
| 20260903221102 | 64 | 269 | 0.0 | 0.0 | 0.00 | 0.29 | 0.29 | 94 | 1014.4 |
| 20260903220602 | 64 | 269 | 0.0 | 1.0 | 0.00 | 0.29 | 0.29 | 94 | 1014.4 |
| 20260903220137 | 63 | 269 | 0.0 | 1.0 | 0.00 | 0.28 | 0.00 | 93 | 1014.0 |
| 20260903220101 | 64 | 269 | 0.0 | 1.0 | 0.00 | 0.29 | 0.29 | 93 | 1014.3 |
| 20260903215604 | 64 | 269 | 0.0 | 0.0 | 0.00 | 0.29 | 0.29 | 93 | 1014.3 |
| 20260903215101 | 64 | 269 | 0.0 | 0.0 | 0.00 | 0.29 | 0.29 | 94 | 1014.2 |
| 20260903214600 | 64 | 269 | 0.0 | 0.0 | 0.00 | 0.29 | 0.29 | 94 | 1014.3 |
| 20260903214537 | 63 | 269 | 0.0 | 0.0 | 0.00 | 0.28 | 0.00 | 94 | 1014.0 |
| 20260903214102 | 64 | 269 | 0.0 | 1.0 | 0.00 | 0.29 | 0.29 | 94 | 1014.2 |
| 20260903213132 | 63 | 269 | 0.0 | 0.0 | 0.00 | 0.28 | 0.00 | 93 | 1014.0 |
| 20260903213101 | 64 | 269 | 0.0 | 0.0 | 0.00 | 0.29 | 0.29 | 93 | 1014.2 |
| 20260903212602 | 64 | 269 | 0.0 | 0.0 | 0.00 | 0.29 | 0.29 | 93 | 1014.2 |
| 20260903212101 | 64 | 269 | 0.0 | 0.0 | 0.00 | 0.29 | 0.29 | 94 | 1014.2 |
| 20260903211603 | 64 | 269 | 0.0 | 0.0 | 0.00 | 0.29 | 0.29 | 93 | 1014.1 |
| 20260903211531 | 63 | 269 | 0.0 | 0.0 | 0.00 | 0.28 | 0.00 | 93 | 1013.9 |
| 20260903211100 | 64 | 269 | 0.0 | 0.0 | 0.00 | 0.29 | 0.29 | 92 | 1014.3 |
| 20260903210132 | 63 | 269 | 0.0 | 0.0 | 0.00 | 0.28 | 0.00 | 93 | 1014.0 |
| 20260903210106 | 63 | 269 | 0.0 | 0.0 | 0.00 | 0.29 | 0.29 | 93 | 1014.3 |
| 20260903205102 | 64 | 269 | 0.0 | 0.0 | 0.00 | 0.29 | 0.29 | 92 | 1014.3 |
| 20260903204530 | 63 | 269 | 0.0 | 0.0 | 0.00 | 0.28 | 0.00 | 92 | 1014.1 |
| 20260903204101 | 64 | 269 | 0.0 | 0.0 | 0.00 | 0.29 | 0.29 | 92 | 1014.4 |
| 20260903203602 | 64 | 269 | 0.0 | 0.0 | 0.00 | 0.29 | 0.29 | 91 | 1014.4 |
| 20260903203123 | 64 | 269 | 0.0 | 0.0 | 0.00 | 0.28 | 0.00 | 91 | 1014.3 |
| 20260903203102 | 64 | 269 | 0.0 | 0.0 | 0.00 | 0.29 | 0.29 | 91 | 1014.6 |
| 20260903201602 | 64 | 269 | 0.0 | 0.0 | 0.00 | 0.29 | 0.29 | 91 | 1014.3 |
| 20260903201516 | 64 | 269 | 0.0 | 0.0 | 0.00 | 0.28 | 0.00 | 91 | 1014.0 |
| 20260903201102 | 64 | 269 | 0.0 | 0.0 | 0.00 | 0.29 | 0.29 | 90 | 1014.3 |
| 20260903200109 | 64 | 269 | 0.0 | 1.0 | 0.00 | 0.28 | 0.00 | 92 | 1014.3 |
| 20260903195602 | 64 | 269 | 0.0 | 1.0 | 0.00 | 0.29 | 0.29 | 91 | 1014.7 |
| 20260903195058 | 64 | 269 | 0.0 | 1.0 | 0.00 | 0.29 | 0.29 | 91 | 1014.7 |
| 20260903194552 | 64 | 269 | 0.0 | 1.0 | 0.00 | 0.29 | 0.29 | 91 | 1014.8 |
| 20260903194504 | 63 | 269 | 0.0 | 1.0 | 0.00 | 0.28 | 0.00 | 91 | 1014.6 |
| 20260903194046 | 64 | 269 | 0.0 | 1.0 | 0.00 | 0.29 | 0.29 | 92 | 1014.9 |
| 20260903193537 | 64 | 269 | 0.0 | 1.0 | 0.00 | 0.29 | 0.29 | 92 | 1014.9 |
| 20260903193105 | 63 | 269 | 0.0 | 2.0 | 0.00 | 0.28 | 0.00 | 92 | 1014.7 |
| 20260903193036 | 64 | 269 | 0.0 | 2.0 | 0.00 | 0.29 | 0.29 | 92 | 1015.0 |
| 20260903192534 | 64 | 269 | 0.0 | 2.0 | 0.00 | 0.29 | 0.29 | 91 | 1015.0 |
| 20260903192029 | 64 | 269 | 0.0 | 2.0 | 0.00 | 0.29 | 0.29 | 91 | 1015.0 |
| 20260903191531 | 64 | 269 | 0.0 | 2.0 | 0.00 | 0.29 | 0.29 | 91 | 1015.0 |
| 20260903191501 | 63 | 269 | 0.0 | 2.0 | 0.00 | 0.28 | 0.00 | 91 | 1014.7 |
| 20260903191029 | 64 | 269 | 0.0 | 0.0 | 0.00 | 0.29 | 0.29 | 92 | 1015.1 |
| 20260903190533 | 64 | 269 | 0.0 | 0.0 | 0.00 | 0.29 | 0.29 | 91 | 1015.0 |
| 20260903190106 | 63 | 269 | 0.0 | 0.0 | 0.00 | 0.28 | 0.00 | 91 | 1014.8 |
| 20260903190030 | 64 | 269 | 0.0 | 1.0 | 0.00 | 0.29 | 0.29 | 91 | 1015.0 |
| 20260903185530 | 64 | 269 | 0.0 | 2.0 | 0.00 | 0.29 | 0.29 | 91 | 1015.0 |
| 20260903185030 | 64 | 269 | 0.0 | 2.0 | 0.00 | 0.29 | 0.29 | 90 | 1015.1 |
| 20260903184530 | 64 | 269 | 0.0 | 1.0 | 0.00 | 0.29 | 0.29 | 90 | 1015.1 |
| 20260903184502 | 64 | 269 | 0.0 | 1.0 | 0.00 | 0.28 | 0.00 | 90 | 1014.8 |
| 20260903184030 | 64 | 269 | 0.0 | 2.0 | 0.00 | 0.29 | 0.29 | 90 | 1015.1 |
| 20260903183529 | 64 | 269 | 0.0 | 2.0 | 0.00 | 0.29 | 0.29 | 91 | 1015.1 |
| 20260903183055 | 63 | 269 | 0.0 | 2.0 | 0.00 | 0.28 | 0.00 | 90 | 1014.9 |
| 20260903183029 | 64 | 269 | 0.0 | 2.0 | 0.00 | 0.29 | 0.29 | 90 | 1015.2 |
| 20260903182531 | 64 | 269 | 0.0 | 2.0 | 0.00 | 0.29 | 0.29 | 91 | 1015.2 |
| 20260903181642 | 63 | 269 | 0.0 | 2.0 | 0.00 | 0.28 | 0.00 | 91 | 1015.0 |
| 20260903181522 | 64 | 269 | 0.0 | 3.0 | 0.00 | 0.29 | 0.29 | 92 | 1015.3 |
| 20260903181019 | 64 | 269 | 0.0 | 3.0 | 0.00 | 0.29 | 0.29 | 90 | 1015.3 |
| 20260903180519 | 64 | 269 | 0.0 | 2.0 | 0.00 | 0.29 | 0.29 | 91 | 1015.3 |
| 20260903180041 | 63 | 269 | 0.0 | 1.0 | 0.00 | 0.28 | 0.00 | 91 | 1015.0 |
| 20260903180018 | 64 | 269 | 0.0 | 1.0 | 0.00 | 0.29 | 0.29 | 92 | 1015.3 |
| 20260903175017 | 64 | 269 | 0.0 | 1.0 | 0.00 | 0.29 | 0.29 | 91 | 1015.4 |
| 20260903174639 | 63 | 269 | 0.0 | 0.0 | 0.00 | 0.28 | 0.00 | 92 | 1015.2 |
| 20260903174517 | 64 | 269 | 0.0 | 2.0 | 0.00 | 0.29 | 0.29 | 92 | 1015.4 |